• In Hungary
  • List of Countries
  • For 7 days
  • Water Temperature
  • Satellite Maps
  • Weather Map
  • News
  • Weather Widgets
  • user-avatar
    Login

    Hourly Weather Igls

    Today, 25 February, Sunday

    Time Temperature Precipitation Wind Pressure Humidity
    00:00 -7°C° 0 mm 1 mps 681 mmHg 90%
    01:00 -7°C° 0 mm 1 mps 681 mmHg 87%
    02:00 -8°C° 0 mm 1 mps 681 mmHg 88%
    03:00 -8°C° 0 mm 1 mps 680 mmHg 88%
    04:00 -9°C° 0 mm 1 mps 680 mmHg 88%
    05:00 -9°C° 0 mm 1 mps 680 mmHg 89%
    06:00 -10°C° 0 mm 1 mps 680 mmHg 90%
    07:00 -10°C° 0 mm 1 mps 680 mmHg 90%
    08:00 -10°C° 0 mm 2 mps 681 mmHg 88%
    09:00 -9°C° 0 mm 2 mps 681 mmHg 86%
    10:00 -8°C° 0 mm 2 mps 681 mmHg 83%
    11:00 -7°C° 0 mm 2 mps 681 mmHg 81%
    12:00 -6°C° 0 mm 2 mps 681 mmHg 79%
    13:00 -7°C° 0 mm 3 mps 681 mmHg 77%
    14:00 -7°C° 0 mm 3 mps 681 mmHg 79%
    15:00 -8°C° 0 mm 3 mps 680 mmHg 80%
    16:00 -8°C° 0 mm 3 mps 680 mmHg 82%
    17:00 -9°C° 0 mm 2 mps 680 mmHg 86%
    18:00 -12°C° 0 mm 2 mps 680 mmHg 90%
    19:00 -14°C° 0 mm 2 mps 680 mmHg 93%
    20:00 -15°C° 0 mm 2 mps 681 mmHg 93%
    21:00 -14°C° 0 mm 1 mps 681 mmHg 93%
    22:00 -14°C° 0 mm 1 mps 681 mmHg 93%
    23:00 -15°C° 0 mm 1 mps 681 mmHg 93%

    Tomorrow, 26 February, Monday

    Time Temperature Precipitation Wind Pressure Humidity
    00:00 -16°C° 0 mm 1 mps 680 mmHg 92%
    01:00 -16°C° 0 mm 1 mps 680 mmHg 92%
    02:00 -17°C° 0 mm 1 mps 680 mmHg 91%
    03:00 -17°C° 0 mm 1 mps 680 mmHg 91%
    04:00 -17°C° 0 mm 1 mps 680 mmHg 91%
    05:00 -18°C° 0 mm 1 mps 680 mmHg 91%
    06:00 -18°C° 0 mm 1 mps 680 mmHg 91%
    07:00 -19°C° 0 mm 1 mps 680 mmHg 90%
    08:00 -19°C° 0 mm 2 mps 680 mmHg 87%
    09:00 -17°C° 0 mm 2 mps 680 mmHg 84%
    10:00 -15°C° 0 mm 2 mps 680 mmHg 81%
    11:00 -14°C° 0 mm 2 mps 680 mmHg 80%
    12:00 -13°C° 0 mm 2 mps 680 mmHg 79%
    13:00 -13°C° 0 mm 3 mps 680 mmHg 78%
    14:00 -13°C° 0.1 mm 3 mps 679 mmHg 79%
    15:00 -13°C° 0.1 mm 3 mps 679 mmHg 81%
    16:00 -14°C° 0.1 mm 3 mps 679 mmHg 82%
    17:00 -14°C° 0.1 mm 2 mps 679 mmHg 86%
    18:00 -15°C° 0.1 mm 2 mps 679 mmHg 89%
    19:00 -17°C° 0.1 mm 2 mps 679 mmHg 93%
    20:00 -15°C° 0 mm 1 mps 679 mmHg 93%
    21:00 -16°C° 0 mm 1 mps 679 mmHg 93%
    22:00 -17°C° 0 mm 1 mps 679 mmHg 94%
    23:00 -17°C° 0 mm 1 mps 679 mmHg 93%

    Day after tomorrow, 27 February, Tuesday

    Time Temperature Precipitation Wind Pressure Humidity
    00:00 -18°C° 0 mm 1 mps 679 mmHg 92%
    01:00 -18°C° 0 mm 1 mps 678 mmHg 92%
    02:00 -19°C° 0 mm 1 mps 678 mmHg 91%
    03:00 -19°C° 0 mm 1 mps 678 mmHg 90%
    04:00 -19°C° 0 mm 1 mps 678 mmHg 89%
    05:00 -19°C° 0 mm 1 mps 678 mmHg 89%
    06:00 -19°C° 0 mm 1 mps 678 mmHg 88%
    07:00 -19°C° 0 mm 1 mps 677 mmHg 88%
    08:00 -17°C° 0 mm 1 mps 678 mmHg 83%
    09:00 -15°C° 0 mm 1 mps 678 mmHg 79%
    10:00 -12°C° 0 mm 1 mps 678 mmHg 74%
    11:00 -12°C° 0 mm 1 mps 678 mmHg 70%
    12:00 -11°C° 0 mm 1 mps 678 mmHg 67%
    13:00 -10°C° 0 mm 1 mps 677 mmHg 63%
    14:00 -10°C° 0.1 mm 1 mps 677 mmHg 68%
    15:00 -9°C° 0.1 mm 1 mps 678 mmHg 73%
    16:00 -10°C° 0.1 mm 2 mps 678 mmHg 79%
    17:00 -11°C° 0.1 mm 1 mps 678 mmHg 84%
    18:00 -12°C° 0.1 mm 1 mps 678 mmHg 88%
    19:00 -14°C° 0.1 mm 1 mps 678 mmHg 93%
    20:00 -15°C° 0 mm 1 mps 678 mmHg 93%
    21:00 -15°C° 0 mm 1 mps 678 mmHg 92%
    22:00 -16°C° 0 mm 1 mps 678 mmHg 92%
    23:00 -16°C° 0 mm 1 mps 678 mmHg 90%

    28 February, Wednesday

    Time Temperature Precipitation Wind Pressure Humidity
    00:00 -16°C° 0 mm 1 mps 679 mmHg 88%
    01:00 -18°C° 0 mm 2 mps 679 mmHg 87%
    02:00 -19°C° 0 mm 2 mps 679 mmHg 86%
    03:00 -17°C° 0 mm 1 mps 679 mmHg 86%
    04:00 -17°C° 0 mm 1 mps 679 mmHg 85%
    05:00 -17°C° 0 mm 1 mps 679 mmHg 84%
    06:00 -17°C° 0 mm 1 mps 679 mmHg 83%
    07:00 -17°C° 0 mm 1 mps 679 mmHg 82%
    08:00 -14°C° 0 mm 1 mps 680 mmHg 75%
    09:00 -11°C° 0 mm 1 mps 680 mmHg 67%
    10:00 -8°C° 0 mm 1 mps 681 mmHg 59%
    11:00 -7°C° 0 mm 1 mps 681 mmHg 58%
    12:00 -6°C° 0 mm 1 mps 681 mmHg 56%
    13:00 -5°C° 0 mm 2 mps 681 mmHg 55%
    14:00 -5°C° 0 mm 2 mps 680 mmHg 59%
    15:00 -5°C° 0 mm 2 mps 680 mmHg 62%
    16:00 -5°C° 0 mm 2 mps 680 mmHg 66%
    17:00 -6°C° 0 mm 2 mps 680 mmHg 72%
    18:00 -8°C° 0 mm 2 mps 680 mmHg 78%
    19:00 -10°C° 0 mm 2 mps 680 mmHg 85%
    20:00 -10°C° 0 mm 2 mps 680 mmHg 84%
    21:00 -12°C° 0 mm 2 mps 680 mmHg 83%
    22:00 -13°C° 0 mm 3 mps 680 mmHg 83%
    23:00 -12°C° 0 mm 3 mps 680 mmHg 82%

    1 March, Thursday

    Time Temperature Precipitation Wind Pressure Humidity
    00:00 -12°C° 0 mm 3 mps 680 mmHg 81%
    01:00 -12°C° 0 mm 3 mps 680 mmHg 81%
    02:00 -10°C° 0 mm 3 mps 680 mmHg 80%
    03:00 -10°C° 0 mm 3 mps 679 mmHg 80%
    04:00 -9°C° 0 mm 3 mps 679 mmHg 80%
    05:00 -9°C° 0 mm 3 mps 679 mmHg 80%
    06:00 -9°C° 0 mm 3 mps 679 mmHg 80%
    07:00 -8°C° 0 mm 3 mps 678 mmHg 81%
    08:00 -6°C° 0 mm 3 mps 678 mmHg 80%
    09:00 -4°C° 0 mm 3 mps 678 mmHg 78%
    10:00 -1°C° 0 mm 3 mps 678 mmHg 77%
    11:00 +1°C° 0 mm 2 mps 678 mmHg 79%
    12:00 +2°C° 0 mm 2 mps 678 mmHg 81%
    13:00 +3°C° 0 mm 2 mps 677 mmHg 83%
    14:00 +3°C° 0 mm 2 mps 677 mmHg 84%
    15:00 +3°C° 0 mm 2 mps 677 mmHg 86%
    16:00 +3°C° 0 mm 2 mps 676 mmHg 87%
    17:00 +2°C° 0.1 mm 2 mps 676 mmHg 88%
    18:00 +1°C° 0.1 mm 2 mps 676 mmHg 90%
    19:00 -1°C° 0.1 mm 2 mps 677 mmHg 91%
    20:00 -1°C° 0 mm 2 mps 676 mmHg 91%
    21:00 -2°C° 0 mm 2 mps 676 mmHg 90%
    22:00 -2°C° 0 mm 3 mps 676 mmHg 90%
    23:00 -2°C° 0 mm 3 mps 676 mmHg 89%

    2 March, Friday

    Time Temperature Precipitation Wind Pressure Humidity
    00:00 -2°C° 0 mm 3 mps 676 mmHg 89%
    01:00 -2°C° 0 mm 3 mps 676 mmHg 89%
    02:00 -2°C° 0 mm 2 mps 675 mmHg 89%
    03:00 -2°C° 0 mm 2 mps 675 mmHg 89%
    04:00 -2°C° 0 mm 2 mps 675 mmHg 88%
    05:00 -2°C° 0 mm 2 mps 675 mmHg 88%
    06:00 -2°C° 0 mm 2 mps 674 mmHg 88%
    07:00 -2°C° 0 mm 2 mps 674 mmHg 88%
    08:00 +1°C° 0 mm 2 mps 675 mmHg 88%
    09:00 +3°C° 0 mm 2 mps 675 mmHg 88%
    10:00 +5°C° 0 mm 2 mps 675 mmHg 88%
    11:00 +6°C° 0 mm 2 mps 675 mmHg 89%
    12:00 +8°C° 0 mm 1 mps 675 mmHg 90%
    13:00 +8°C° 0 mm 1 mps 675 mmHg 91%
    14:00 +8°C° 0.1 mm 1 mps 675 mmHg 92%
    15:00 +8°C° 0.1 mm 1 mps 675 mmHg 93%
    16:00 +8°C° 0.1 mm 1 mps 675 mmHg 93%
    17:00 +7°C° 0.1 mm 1 mps 675 mmHg 93%
    18:00 +6°C° 0.1 mm 1 mps 676 mmHg 94%
    19:00 +5°C° 0.1 mm 1 mps 676 mmHg 94%
    20:00 +5°C° 0.2 mm 1 mps 676 mmHg 94%
    21:00 +4°C° 0.2 mm 1 mps 676 mmHg 93%
    22:00 +4°C° 0.2 mm 1 mps 677 mmHg 93%
    23:00 +4°C° 0 mm 1 mps 677 mmHg 93%
    Show more